Lid_Strength_Index
1 1 1 1 2 2 2 3 3 4 4 6 5 6 6 6 6 5 6 4 5 5
1 1 1 1 1 1 2 2 3 3 5 5 5 5 5 6 8 7 5 5 5 5
1 1 1 1 1 2 2 3 3 3 4 6 6 6 6 6 6 5 6 6 6 6
1 1 1 1 1 2 3 3 3 4 5 6 6 6 5 5 6 6 6 5 6 6
1 1 1 2 3 4 3 3 5 4 5 6 6 5 5 6 6 6 6 6 6 7
2 2 3 4 4 3 4 4 4 4 5 5 5 5 6 7 6 6 7 7 7 7
2 3 4 4 4 4 4 4 5 5 4 5 5 6 7 6 6 7 8 7 7 8
3 4 5 5 5 6 5 5 6 5 6 5 6 7 7 7 7 8 8 8 8 7
5 6 6 6 7 6 7 7 7 7 7 7 10 11 9 7 8 8 8 9 8 7
6 7 7 8 8 8 9 8 8 9 10 11 11 10 10 9 8 8 8 8 8 8
8 8 8 9 9 9 9 8 9 11 10 11 10 11 11 10 8 8 8 8 8 8
9 8 9 10 10 9 10 9 10 11 11 11 11 11 11 9 8 9 9 9 9 8
7 8 11 10 10 11 11 12 12 12 11 10 11 12 11 9 9 9 10 9 8 11
9 11 10 11 11 11 12 12 12 13 11 11 11 11 11 10 10 10 10 10 9 9